Regional Weather Roundup
Issued by NWS Newport/Morehead, NC

Current Version | Previous Version | Graphics & Text | Print | Product List | Glossary Off
Versions: 1 2 3 4 5 6 7 8 9 10 11 12 13 14 15 16 17 18 19 20 21 22 23 24 25 26 27 28 29 30 31 32 33 34 35 36 37 38 39 40 41 42 43 44 45 46 47 48 49 50

377
ASUS42 KMHX 081413
RWRMHX
WEATHER ROUNDUP FOR EASTERN NORTH CAROLINA
NATIONAL WEATHER SERVICE NEWPORT/MOREHEAD CITY NC
900 AM EST MON FEB 08 2016

NOTE: "FAIR" INDICATES FEW OR NO CLOUDS BELOW 12,000 FEET
WITH NO SIGNIFICANT WEATHER AND/OR OBSTRUCTIONS TO VISIBILITY

NCZ015>017-031-032-045>047-102-103-081500-
NORTH COAST

CITY           SKY/WX    TMP DP  RH WIND       PRES   REMARKS
EDENTON        SUNNY     40  28  60 NW9       29.81S
ELIZABETH CITY SUNNY     39  28  64 NW9       29.79R
KITTY HAWK     SUNNY     41  30  65 NW7       29.75S
MANTEO         SUNNY     40  32  71 NW12G22   29.77S

$$

NCZ045>047-081-094-103-104-081500-
CENTRAL COAST

CITY           SKY/WX    TMP DP  RH WIND       PRES   REMARKS
FRISCO         SUNNY     42  31  64 NW13G23   29.78R
SWANQUARTER      N/A     41 N/A N/A NW8G17    29.79R

$$

NCZ095-097-098-100-101-081500-
SOUTHERN COAST

CITY           SKY/WX    TMP DP  RH WIND       PRES   REMARKS
BEAUFORT       SUNNY     40  29  64 NW10        N/A
CEDAR ISLAND     N/A     41 N/A N/A W13G23    29.85S
JACKSONVILLE   SUNNY     41  27  57 W9        29.86S
PINEY ISLAND   NOT AVBL
WILMINGTON     SUNNY     42  30  62 W7        29.88S


$$

NCZ011>013-027>030-043-044-078>080-089-090>093-098-081500-
COASTAL PLAIN

CITY           SKY/WX    TMP DP  RH WIND       PRES   REMARKS
AHOSKIE        SUNNY     37  23  57 N3        29.82R
CLINTON        SUNNY     38  32  78 CALM      29.87R
ELIZABETHTOWN  SUNNY     39  30  72 CALM      29.88R
GOLDSBORO      SUNNY     39  28  65 W5        29.84R
GREENVILLE     SUNNY     37  27  65 NW5       29.86R
HAVELOCK       SUNNY     41  26  55 W9        29.85R
KENANSVILLE      N/A     40  28  64 CALM      29.87S
KINSTON        SUNNY     41  27  56 NW3       29.86R
NEW BERN       SUNNY     40  26  57 W8        29.85R
RICHLANDS      SUNNY     39  25  56 CALM      29.86S
ROCKY MOUNT    SUNNY     38  27  64 W5        29.85R
WASHINGTON     SUNNY     39  26  61 CALM      29.83S
WHITEVILLE     SUNNY     40  31  69 CALM      29.88S

$$

AMZ130-135-150-152-154-156-158-170-250-252-270-ANZ085-086-088-633-658-670-081500-
MARINE OBSERVATIONS

STATION/POSITION TIME  TEMP    WIND        PRES    WAVE   SWELL
                       AIR SEA DIR/SP/G            HT/PER HT/PER
                 (UTC) (F)     (DEG/KT/KT) (MB)    (FT/S) (FT/S)
CHESAPEAKE LIGHT 1400   41     340/ 23/ 24 1008.0
64 E VA BEACH    1350   46 53  340/ 27/ 33 1004.2   20/13  18/13
DUCK             1300   39 51  300/ 14/ 18 1007.2
2 E DUCK         1311      44                N/A    11/13   8/13
OREGON INLET     1300   41 45  300/ 16/ 20 1007.6
13E OREGON INLT  1400      47                N/A    16/15  11/15
HATTERAS CG      1300   42 46  300/ 24/ 27 1007.6
DIAMOND BUOY     1350   43 54  320/ 21/ 27 1007.8   13/17  11/17
CAPE LOOKOUT     NOT AVBL
BEAUFORT LAB     1300   38 46  310/  7/ 11 1009.0
30 SE NEW RVR IN 1308   46 60              1009.3
30 SE NEW RVR IN 1325      60                N/A     7/17   5/17
27 SE WRIGHTSVLE 1308   49 60  360/ 16/ 21 1010.0
5 SE WRIGHTSVLE  1308   43 52  300/ 10/ 16 1011.8
225 S CAPE HAT   1350   58 69  300/ 25/ 31   N/A    23/13  20/13
41 SE CHARLESTON 1350   53 66  270/ 14/ 17 1012.3    5/13   3/13

$$




USA.gov is the U.S. government's official web portal to all federal, state and local government web resources and services.